www.pogodaiklimat.ru

Погода и климат >> Архив погоды >> Россия >> Краснодарский край >> Краснодар


АРХИВ ПОГОДЫ в Краснодаре

Время (UTC), дата Ветер
(напр.,м/с)
 
Видим.   Явления Облачность Т
(С)
Тd
(С)
f
(%)
Тe
(С)
Тes
(С)
Комфортность P
(гПа)
Po
(гПа)
Тmin
(С)
Tmax
(С)
R
(мм)
R24
(мм)
S
(см)
00 16.04 СВ 1 10 км ясно +4.1 -3.4 58 +3 +3 прохладно 1025.9 1021.5
03 16.04 СВ 1 10 км ясно +1.7 -2.4 74 0 0 очень
холодно
1026.2 1021.8 +1.3
06 16.04 ЮВ 2 10 км 4/0
[Ci fib]
+10.6 -0.2 47 +10 +17 по сезону 1026.6 1022.3
09 16.04 В 2 10 км 4/0
[Ci fib]
+15.7 -5.9 22 +16 +30 опасность
простуды
1025.7 1021.5
12 16.04 ЮВ 3 10 км 4/0
[Cc]
+17.4 -3.5 24 +17 +25 по сезону 1024.2 1020.0
15 16.04 ЮВ 3 10 км 4/0
[Cc]
+16.2 -1.0 31 +16 +17 тепло 1022.8 1018.6 +18.3
18 16.04 СВ 2 10 км ясно +11.5 -0.6 43 +11 +11 по сезону 1023.3 1019.1
21 16.04 СВ 1 10 км ясно +7.3 +1.4 66 +7 +7 прохладно 1022.8 1018.5
00 17.04 С 1 10 км ясно +5.8 +1.4 73 +5 +5 прохладно 1022.3 1018.0
03 17.04 штиль 0 10 км 5/0
[Cs]
+3.8 +0.5 79 +3 +3 холодно 1022.8 1018.5 +3.6
06 17.04 ЮВ 1 10 км 9/0
[Ac trans Cs]
+12.5 +5.6 63 +13 +19 тепло 1023.2 1019.0
09 17.04 В 2 10 км 4/0
[Ci fib]
+18.3 -1.5 26 +19 +33 опасность
простуды
1022.5 1018.4
12 17.04 В 2 10 км 10/0
[Ac trans Ci fib]
+20.7 +2.0 29 +22 +29 комфорт 1021.5 1017.4
15 17.04 ЮВ 2 10 км 9/0
[Ac trans]
+18.5 +4.6 40 +19 +20 тепло 1020.9 1016.8 +21.3
18 17.04 С 2 10 км 10/0
[Ac und]
+14.8 +3.8 48 +15 +15 тепло 1021.5 1017.3
21 17.04 штиль 0 10 км 10/0
[Ac trans Ci fib]
+11.5 +3.6 58 +11 +11 по сезону 1022.2 1018.0
00 18.04 штиль 0 10 км ясно +8.4 +3.9 73 +8 +8 по сезону 1022.0 1017.7
03 18.04 Ю 1 10 км 10/3 1000 м
[Sc Ac trans Ci fib]
+6.2 +3.8 85 +5 +5 прохладно 1021.7 1017.4 +6.1
06 18.04 З 1 4000 м дымка 10/0
[Cs]
+14.8 +6.2 56 +15 +23 тепло 1022.6 1018.1
09 18.04 В 1 10 км 10/0 2000 м
[As trans Cs]
+19.5 +5.0 38 +21 +34 комфорт 1021.7 1017.6
12 18.04 Ю 2 10 км 10/0 2000 м
[Ac As Cs]
+20.2 +3.4 33 +21 +26 комфорт 1020.6 1016.5
15 18.04 ЮВ 2 10 км 10/0
[Cs]
+19.8 +6.5 42 +21 +22 комфорт 1019.3 1015.2 +21.4
18 18.04 Ю 2 10 км 3/0
[Ci fib]
+15.5 +6.7 56 +16 +23 тепло 1019.1 1014.9
21 18.04 Ю 2 10 км 1/0 2000 м
[Ac trans]
+11.8 +6.0 68 +11 +11 по сезону 1017.7 1013.5
00 19.04 ЮЗ 4 10 км ясно +13.2 +4.7 56 +12 +12 тепло 1016.4 1012.2
03 19.04 ЮЗ 4 10 км 10/0 2000 м
[Ac As Cs]
+12.7 +8.0 73 +11 +11 по сезону 1015.5 1011.3 +10.7
06 19.04 ЮЗ 6 10 км {ливн. осадки} 10/5 1000 м
[Sc Ac trans Ci fib]
+16.3 +9.6 65 +15 +16 тепло 1014.4 1010.3
09 19.04 Ю 12-15
{15}
10 км в посл. час ливневой дождь 10/5 1000 м
[Cb cap Ac trans Cc]
+18.4 +8.3 52 +17 +17 тепло 1012.1 1008.0
12 19.04 З 4
{15}
4000 м гроза, ливневой дождь 10/10 600 м
[Cb cap]
+12.0 +8.0 76 +10 +10 холодно 1011.1 1006.9
15 19.04 ЮЗ 5 10 км в посл. час ливневой дождь {гроза} 10/8 1000 м
[Cb cap Ac und]
+11.9 +8.9 82 +9 +9 холодно 1010.5 1006.3 +19.2 12
18 19.04 ЮЗ 5 10 км {гроза, ливн. осадки} 10/8 600 м
[Cb cap Ac und]
+11.7 +8.5 81 +9 +9 прохладно 1009.5 1005.3
21 19.04 ЮЗ 4 10 км {ливн. осадки} 10/3 1000 м
[Sc Ac und]
+11.2 +9.4 89 +9 +9 по сезону 1008.6 1004.4
00 20.04 ЮЗ 5 10 км {ливн. осадки} 8/8 1000 м
[Sc]
+11.2 +7.5 78 +9 +9 по сезону 1007.1 1002.9
03 20.04 З 4 10 км 10/8 1000 м
[Cb cap Ac und]
+10.5 +7.5 82 +8 +8 по сезону 1006.7 1002.5 +10.0 2
06 20.04 З 5 10 км 10/10 600 м
[Cb cap]
+11.0 +7.0 76 +8 +8 прохладно 1007.0 1002.8
09 20.04 З 5 10 км 10/10 600 м
[Cb cap]
+12.0 +6.4 69 +10 +10 прохладно 1008.0 1003.9
12 20.04 З 5 10 км 10/10 1000 м
[Cb cap]
+12.0 +6.9 71 +10 +10 холодно 1009.4 1005.2
15 20.04 СЗ 3 10 км в посл. час ливневой дождь 10/10 600 м
[Cb cap]
+10.8 +6.5 75 +9 +9 холодно 1010.7 1006.5 +12.7 0.3
18 20.04 З 2 10 км 6/3 1500 м
[Sc diur, vesp Ac trans]
+9.3 +5.9 79 +8 +8 прохладно 1012.5 1008.2
21 20.04 З 2 10 км 6/4 1500 м
[Sc diur, vesp Ac trans]
+9.4 +6.3 81 +8 +8 прохладно 1013.3 1009.1
00 21.04 З 2 10 км 6/4 1500 м
[Sc diur, vesp Ac trans]
+9.0 +6.5 84 +7 +7 по сезону 1013.3 1009.1
03 21.04 З 2 10 км 8/6 1500 м
[Sc diur, vesp Ac trans]
+8.8 +6.4 85 +7 +7 прохладно 1014.1 1009.8 +8.8
06 21.04 ЮЗ 3 10 км 10/8 1000 м
[Cu Sc As trans]
+11.8 +7.4 74 +10 +11 по сезону 1015.6 1011.4 +8.7
09 21.04 СВ 3 10 км 6/6 1000 м
[Sc diur, vesp]
+15.4 +7.1 58 +15 +20 по сезону 1015.4 1011.3
12 21.04 ЮЗ 2 10 км 3/3 1000 м
[Sc diur, vesp Ci fib]
+17.7 +6.0 46 +18 +26 тепло 1014.6 1010.5
15 21.04 Ю 2 10 км 4/1 1500 м
[Cu hum Ci]
+15.0 +7.8 62 +15 +16 по сезону 1013.8 1009.7 +18.9
18 21.04 З 3 10 км 3/0
[Ci fib]
+12.4 +2.7 52 +11 +11 по сезону 1014.2 1010.0
21 21.04 ЮЗ 3 10 км ясно +9.3 +3.5 67 +7 +7 прохладно 1014.1 1009.9
00 22.04 Ю 7 10 км ясно +10.8 +6.9 77 +7 +7 по сезону 1012.9 1008.7
03 22.04 Ю 8-11
{11}
10 км 8/0 2000 м
[Ac cast Ci]
+10.8 +5.7 71 +7 +7 прохладно 1011.3 1007.1 +9.2
06 22.04 ЮЗ 12-17
{17}
10 км 8/0 2000 м
[Ac trans Ci fib]
+14.9 +2.8 44 +12 +12 по сезону 1009.9 1005.8
09 22.04 ЮЗ 14-20
{18}
10 км 10/8 1000 м
[Cb cap Ac As Ci fib]
+15.8 +3.2 43 +13 +13 по сезону 1010.5 1006.4
12 22.04 Ю 13-17
{17}
10 км 10/8 1000 м
[Cb cap Ac As]
+16.9 +1.3 35 +15 +15 по сезону 1009.7 1005.6
15 22.04 Ю 12-15
{17}
10 км 8/6 1500 м
[Sc diur, vesp Ac cast]
+14.5 +2.1 43 +12 +12 прохладно 1010.3 1006.2 +17.8
18 22.04 Ю 9-12
{12}
10 км 3/3 1500 м
[Sc]
+12.0 +4.1 58 +9 +9 прохладно 1011.6 1007.4
21 22.04 Ю 8
{13}
10 км 3/3 1500 м
[Sc]
+11.9 +5.7 66 +9 +9 по сезону 1012.1 1007.9

 

Местоположение метеостанции Краснодар (Краснодарский край, Россия): широта 45.05 долгота 39.03 высота над уровнем моря 29 м.

В архиве по умолчанию представлена погода в Краснодаре за последнюю неделю. Архивные данные за месяц целиком и за предыдущие месяцы, начиная с января 2011 года, Вы можете получить, выбрав интересующий диапазон дат из раскрывающегося списка и нажав кнопку "Ввод!".


*Определитесь, кто Вы:
робот инопланетянин человек

Внимание! Время в таблицах - всемирное. Для получения местного времени необходимо прибавить поправку, которая в Краснодаре равна 3 ч.

Смотрите также архив погоды в соседних городах и на ближайших метеорологических станциях:

Погода в Горячем Ключе (Краснодарский край, Россия) (47 км)
Погода в Усть-Лабинске (Краснодарский край, Россия) (58 км)
Погода в Кореновске (Краснодарский край, Россия) (59 км)
Погода в Тимашевске (Краснодарский край, Россия) (65 км)
Погода в Славянске-на-Кубани (Краснодарский край, Россия) (76 км)
Погода в Белореченске (Краснодарский край, Россия) (76 км)
Погода в Крымске (Краснодарский край, Россия) (82 км)
Погода в Джубге (Краснодарский край, Россия) (84 км)
Погода в Горном (Краснодарский край, Россия) (88 км)
Погода в Геленджике (Краснодарский край, Россия) (92 км)

Пояснения к столбцам:

Ветер - указаны скорость ветра в м/с - средняя за 10 мин, порывы в срок и между сроками (в фигурных скобках) и направление, откуда дует ветер: С - северный, СВ - северо-восточный, В - восточный, ЮВ - юго-восточный, Ю - южный, ЮЗ - юго-западный, З - западный, СЗ - северо-западный.
Видимость - горизонтальная дальность видимости в метрах или километрах. При видимости от 1 до 10 км при отсутствии осадков обычно наблюдается дымка, при ухудшении видимости до 1 км и менее - туман. В сухую погоду видимость может ухудшаться дымом, пылью или мглою.
Явления - указаны атмосферные явления, наблюдавшиеся в срок или в последний час перед сроком; фигурными скобками обозначены явления, наблюдавшиеся между сроками (за 1-3 часа до срока); квадратными скобками обозначены град или гололедные отложения с указанием их диаметра в мм.
Облачность - указаны через наклонную черту общая и нижняя облачность в баллах и высота нижней границы облаков в метрах; квадратными скобками обозначены формы облаков: Ci - перистые, Cs - перисто-слоистые, Cc - перисто-кучевые, Ac - высококучевые, As - высокослоистые, Sc - слоисто-кучевые, Ns - слоисто-дождевые, Cu - кучевые, Cb - кучево-дождевые. Подробнее классификацию облаков см. в Атласе облаков (PDF).
T - Температура воздуха - температура, измеренная на высоте 2 м над землей.
Td - Температура точки росы - температура, при понижении до которой содержащийся в воздухе водяной пар достигнет насыщения.
f - Относительная влажность воздуха - влажноcть воздуха, измеренная на высоте 2 м над землей.
Te - Эффективная температура - температура, которую ощущает одетый по сезону человек в тени. Характеристика душности погоды. При расчете учитывается влияние влажности воздуха и скорости ветра на теплоощущения человека.
Tes - Эффективная температура на солнце - температура, которую ощущает человек, с поправкой на солнечный нагрев. Характеристика знойности погоды. Зависит от высоты солнца над горизонтом, облачности и скорости ветра. Ночью, в пасмурную погоду, а также при ветре 12 м/с и более поправка равна нулю.
P - Атмосферное давление - приведенное к уровню моря атмосферное давление.
Po - Атмосферное давление - измеренное на уровне метеостанции атмосферное давление.
Tmin - Минимальная температура - минимум температуры воздуха на высоте 2 м над землей.
Tmax - Максимальная температура - максимум температуры воздуха на высоте 2 м над землей.
R - Количество осадков - Количество выпавших осадков за период времени, мм. При наведении курсора мыши на число - период времени, за который выпало указанное количество осадков.
R24 - Количество осадков - Количество выпавших осадков за 24 часа, мм.
S - Снежный покров - Высота снежного покрова, см. При наведении курсора мыши на число - состояние снежного покрова и степень покрытия местности в баллах.